Location: La Bastide
(43.1661°N, 1.2755°E)
Time: 10:28:08
(UTC+00:00)

Meteor 1-26 Rocket - Pass Details

Date: 13 December 2025
Orbit: 807 x 926 km, 81.3° (Epoch: 21 January)

Event Time Altitude Azimuth Distance (km) Brightness Sun altitude
Rises 17:39:26 0° 173° (S) 3,328 7.5 -13.9°
Reaches altitude 10° 17:41:53 10° 169° (SSE) 2,392 6.6 -14.3°
Maximum altitude 17:47:04 51° 94° (E) 1,012 4.2 -15.2°
Drops below altitude 10° 17:52:16 10° 20° (NNE) 2,401 6.2 -16.1°
Enters shadow 17:52:42 - 19° (NNE) 2,561 6.4 -16.2°
